Temperature
21 20 20 19 19 19 21 22 23 23 23 23 23 23 22 22 21 21 21 21 21 20 20 19 20 20 20 20 20 20 20 20 20 19 19 19 19 19 19 19 18 18 18 18 18 18 18 18 18
21 20 20 19 19 20 22 23 23 23 23 23 23 23 22 21 21 21 20 21 21 21 20 20 20 20 20 20 20 20 20 20 20 19 19 19 19 19 19 19 18 18 18 18 18 18 18 18 18
21 20 20 18 20 21 23 23 23 24 23 23 22 22 21 21 20 21 21 21 21 21 20 20 20 20 20 20 20 20 20 20 20 19 19 19 19 19 19 19 18 18 18 18 18 18 18 18 18
21 20 20 19 21 22 23 24 24 23 23 23 22 21 21 20 21 21 21 21 21 21 20 20 20 20 20 20 20 20 20 20 19 19 19 19 19 19 19 19 18 18 18 18 18 18 18 17 17
21 20 19 19 21 22 23 24 24 23 23 23 22 21 20 20 21 21 21 21 21 21 20 20 20 20 20 20 20 20 20 20 19 19 19 19 19 19 19 18 18 18 18 18 18 18 18 17 17
21 19 19 20 21 23 24 24 24 23 23 22 21 20 20 20 21 21 21 21 21 21 20 20 20 20 20 20 20 20 20 20 19 19 19 19 19 19 18 18 18 18 18 18 18 17 17 17 17
21 18 20 21 22 23 25 25 24 23 22 22 22 20 19 20 21 21 21 21 20 20 20 20 20 20 20 20 20 20 19 19 19 19 19 19 19 18 18 18 18 18 18 18 18 17 17 17 17
22 18 21 20 22 23 25 25 24 23 23 23 22 20 19 20 20 21 20 20 20 20 20 20 20 20 20 20 19 19 19 19 19 19 19 18 18 18 18 18 18 18 18 18 17 17 17 17 17
22 19 20 21 23 24 25 24 24 24 23 22 22 22 22 21 20 20 20 19 19 19 19 19 20 20 20 19 19 19 19 19 19 19 18 18 18 18 18 18 18 18 18 17 17 17 17 17 17
21 19 21 22 23 24 25 24 24 23 22 21 21 21 21 21 20 20 19 19 19 19 19 19 19 19 19 19 19 19 19 19 19 18 18 18 18 18 18 18 18 18 17 17 17 17 17 17 17
21 21 22 24 25 25 24 24 24 22 21 22 22 21 21 20 19 19 19 20 20 19 19 19 19 19 19 19 19 19 19 19 18 18 18 18 18 18 18 18 18 17 17 17 17 17 17 17 17
22 22 24 25 26 25 24 24 23 22 23 24 24 23 21 20 19 19 19 19 19 19 19 19 19 19 19 19 19 19 19 18 18 18 18 18 18 18 18 18 18 17 17 17 17 17 17 17 17
23 23 25 25 25 25 24 23 23 22 23 23 23 21 21 20 19 19 19 19 19 19 19 19 19 19 19 19 19 19 18 18 18 18 18 18 18 18 18 18 17 17 17 17 17 17 17 17 17
24 24 24 25 25 24 23 22 22 22 22 22 21 21 21 20 19 19 18 19 19 19 19 19 19 19 19 19 19 19 18 18 18 18 18 18 18 18 17 17 17 17 17 17 17 17 17 17 17
24 23 23 24 24 24 23 22 21 22 22 21 20 20 20 19 19 19 19 19 19 19 19 19 19 19 19 19 18 18 18 18 18 18 18 18 18 17 17 17 17 17 17 17 17 17 17 17 17
23 23 23 23 23 24 24 23 22 22 21 20 20 19 19 18 19 19 19 19 19 19 18 18 18 18 18 18 18 18 18 18 18 18 18 17 17 17 17 17 17 17 17 16 16 16 16 16 16
21 22 22 23 24 23 23 22 21 21 20 19 19 19 19 18 18 19 19 19 19 19 18 18 18 18 18 18 18 18 18 18 18 17 17 17 17 17 17 17 17 16 16 16 16 16 16 16 16
22 22 22 22 23 23 22 21 20 20 20 19 19 19 19 18 19 19 19 18 18 18 18 18 18 18 18 18 17 17 17 18 17 17 17 17 17 17 17 17 16 16 16 16 16 16 16 16 16
23 22 22 22 23 23 22 21 20 19 19 19 18 18 18 19 19 18 18 18 18 18 17 17 17 18 18 17 17 17 17 17 17 17 17 17 17 17 17 16 16 16 16 16 16 16 16 16 16
22 22 22 22 23 22 21 21 20 19 19 19 19 18 18 18 18 18 18 18 18 17 17 17 17 17 17 17 17 17 18 17 17 17 17 17 17 17 16 16 16 16 16 16 16 16 15 16 15
23 22 22 22 23 21 21 21 20 19 19 19 19 19 18 18 18 18 18 18 17 17 17 17 17 17 17 17 17 17 17 17 17 17 17 17 16 16 16 16 16 16 16 16 15 15 15 15 15
22 23 23 23 22 20 21 20 20 19 18 18 18 18 18 18 18 18 18 18 17 17 17 17 17 17 17 17 17 17 17 17 17 17 17 17 16 16 16 16 16 16 16 15 15 15 15 15 15
23 23 22 22 20 19 19 19 19 19 19 18 18 18 18 19 18 18 18 18 18 18 17 17 17 17 17 17 17 17 17 17 17 17 17 16 16 16 16 16 16 16 15 15 15 15 15 15 15
23 22 20 17 18 19 20 19 19 18 19 19 19 19 19 19 19 19 18 18 17 17 17 17 17 17 17 17 17 17 17 17 17 17 17 16 16 16 16 16 16 15 15 15 15 15 15 15 15
23 20 19 20 18 19 18 18 18 19 19 19 19 19 19 19 19 19 18 18 17 17 17 17 17 17 17 17 17 17 17 17 17 17 17 17 16 16 16 16 16 15 15 15 15 15 15 15 15
21 20 19 20 19 18 18 18 19 20 20 20 20 20 19 19 19 19 19 18 18 17 17 17 17 17 17 17 17 17 17 17 17 17 17 17 17 17 16 16 16 15 15 15 15 15 15 14 14
21 19 19 18 18 18 18 18 19 20 19 19 19 19 19 19 19 19 19 18 18 18 18 17 17 17 17 17 17 17 17 17 17 17 17 17 17 16 16 16 16 15 15 15 15 15 15 14 14
21 19 17 17 18 19 19 19 19 20 20 19 18 18 19 19 19 19 19 19 19 18 18 18 18 18 17 17 17 17 17 17 17 17 17 17 17 16 16 16 16 15 15 15 15 15 15 14 14
20 19 17 16 17 18 19 19 19 19 19 18 18 19 19 20 20 20 19 19 19 19 18 18 18 18 18 17 17 17 17 17 17 17 17 17 17 16 16 16 16 15 15 15 15 15 15 15 14
21 19 17 18 18 17 17 19 20 19 19 18 18 19 20 20 20 20 20 19 19 19 19 18 18 18 18 18 17 17 17 17 17 17 17 17 16 16 16 16 16 16 15 15 15 15 15 15 15
Wind_Speed
5 4 2 1 3 4 1 3 2 1 1 1 3 3 4 4 4 3 4 14 18 17 18 20 21 20 20 20 19 19 19 19 18 18 18 17 17 16 15 15 14 14 14 14 14 14 14 15 15
4 3 1 2 3 2 3 3 2 3 3 3 3 2 2 1 2 6 8 12 19 17 18 19 21 21 20 19 19 19 18 18 18 17 17 16 16 15 15 14 14 14 14 14 14 14 14 14 14
4 2 3 3 2 3 3 2 4 1 2 2 2 1 1 2 5 7 8 16 16 14 17 20 23 21 20 20 19 18 18 17 17 16 16 15 15 15 14 14 14 14 14 14 14 14 14 13 13
3 3 4 3 2 4 4 3 4 3 1 1 3 2 1 2 5 7 15 17 16 13 16 20 23 22 20 20 19 18 17 17 16 16 15 14 14 14 14 13 13 13 13 13 13 13 12 12 11
3 4 4 2 4 5 4 4 6 6 3 2 3 2 1 4 7 15 17 17 17 13 14 20 23 22 21 20 19 18 17 16 16 15 14 14 13 13 13 13 13 13 13 12 12 12 11 10 10
4 4 3 2 4 5 3 4 7 5 3 3 4 3 1 3 10 15 15 14 14 14 12 18 22 22 21 20 19 18 17 16 15 15 14 13 13 12 12 12 12 11 11 11 11 10 10 9 8
4 4 2 3 4 4 2 3 6 5 4 4 5 4 1 4 8 12 12 12 11 11 11 12 17 19 20 19 19 18 17 16 15 14 14 13 12 11 11 10 10 10 10 10 10 9 9 8 7
5 4 1 3 3 4 1 3 3 4 3 3 5 7 6 8 10 10 10 10 10 10 10 9 12 14 15 17 18 18 17 16 15 14 14 13 12 11 10 9 9 9 9 8 8 7 7 6 6
4 3 2 5 5 3 1 2 1 2 4 2 3 4 5 14 14 12 10 9 10 11 9 8 8 11 13 14 17 17 17 16 15 13 14 12 10 9 9 8 8 8 8 7 6 6 5 5 5
4 3 7 5 5 4 3 3 5 4 3 2 1 4 11 16 16 16 16 16 15 15 12 9 9 8 11 12 12 12 12 13 12 11 11 9 8 8 7 7 7 7 6 6 5 4 4 4 4
6 7 5 5 6 4 3 3 5 8 6 8 8 11 15 16 15 15 15 15 16 15 14 12 10 8 8 6 8 8 8 9 10 10 10 9 7 6 5 4 4 4 5 3 3 3 3 3 3
5 7 7 5 3 2 4 4 4 6 7 6 9 14 16 17 17 16 15 14 13 14 14 13 11 9 7 7 7 7 6 7 7 9 10 8 5 4 4 3 3 3 3 3 3 3 3 3 3
5 6 5 6 5 3 3 4 4 4 2 5 11 13 15 15 14 11 10 10 11 12 12 12 12 10 8 6 6 7 6 6 7 8 9 9 6 4 4 3 3 3 4 3 3 3 3 3 3
5 5 6 5 3 1 4 2 2 3 5 9 11 11 12 12 12 10 10 11 11 12 11 10 11 10 8 7 6 5 6 7 7 7 9 10 8 6 4 4 3 3 4 4 4 3 2 2 2
3 4 6 3 1 0 4 1 4 5 9 10 10 10 9 8 9 10 11 11 12 11 10 10 10 9 9 8 7 6 7 7 6 7 9 10 9 8 6 4 3 3 5 5 5 4 3 2 2
3 4 4 6 1 0 4 6 5 6 10 9 9 9 8 7 8 8 9 10 10 10 10 11 11 10 9 7 6 5 7 7 6 7 8 9 10 9 7 4 3 5 6 5 4 3 2 2 1
5 3 4 7 2 1 3 6 4 5 9 9 8 8 8 7 6 7 8 10 11 11 12 11 10 10 9 7 6 5 6 6 7 7 8 8 9 10 8 5 5 7 5 4 3 2 2 1 1
2 3 5 7 4 2 4 6 4 5 8 8 8 7 7 8 8 8 8 8 8 9 10 10 9 9 9 7 5 4 4 4 5 6 7 9 9 10 9 6 6 7 4 3 3 3 3 2 1
3 4 9 9 5 3 4 5 5 4 6 7 7 7 8 8 7 7 7 7 7 7 8 9 9 9 8 6 6 6 5 4 4 4 7 9 10 11 9 6 6 6 4 4 4 3 3 2 1
4 6 7 8 3 0 2 4 3 4 6 7 9 9 8 7 5 6 7 8 8 9 9 8 9 9 8 7 5 4 4 4 3 3 6 8 10 11 9 8 6 5 5 5 4 3 3 2 2
5 6 7 6 3 4 2 5 3 3 2 3 5 6 7 8 8 8 8 8 9 10 10 10 10 10 9 8 5 5 4 3 3 4 4 6 10 11 10 10 7 6 5 5 4 4 4 3 1
7 7 7 4 1 4 2 4 7 3 4 5 6 6 7 7 7 7 7 8 9 10 11 10 10 10 9 10 9 10 7 6 5 5 5 5 8 9 10 10 9 6 5 5 4 4 3 4 2
7 0 1 1 3 1 2 2 8 2 5 8 9 9 8 8 9 8 8 8 8 8 9 10 10 10 10 10 10 10 7 5 4 4 6 5 4 7 9 10 8 6 5 5 5 4 4 3 3
4 5 6 6 5 1 3 2 8 5 7 6 7 9 9 9 8 7 6 6 6 7 8 9 10 9 9 10 10 10 10 9 8 7 7 5 4 4 6 8 7 7 5 6 5 5 5 3 3
4 5 4 5 4 6 2 3 10 8 7 7 8 9 8 9 8 7 7 7 7 8 8 8 9 9 9 10 10 10 10 10 10 9 9 7 5 4 6 6 6 6 6 6 6 5 4 4 4
6 9 7 5 5 6 2 6 8 6 5 5 5 6 7 8 8 9 9 9 8 9 9 9 9 9 9 10 10 9 10 8 7 8 8 9 7 6 7 7 7 7 7 7 6 4 4 4 4
7 5 6 7 3 2 6 8 10 3 2 3 4 5 7 8 9 9 9 9 9 9 9 10 10 9 9 10 9 9 9 9 8 8 8 7 6 6 8 8 8 7 7 7 6 5 5 5 4
5 9 6 6 5 4 6 6 6 7 5 3 4 6 7 7 8 9 9 9 8 9 8 9 9 9 8 9 9 9 9 8 8 8 8 8 8 7 9 9 8 7 7 7 6 5 5 5 4
4 5 5 5 5 6 4 8 7 7 5 5 6 7 7 8 8 9 8 8 7 7 8 9 9 8 8 8 8 8 8 8 7 7 8 8 7 8 9 9 9 9 8 7 7 6 6 6 5
6 8 8 6 5 5 4 8 5 5 5 5 5 5 6 7 7 7 7 7 7 8 8 9 9 8 8 8 8 8 7 7 7 7 7 7 8 8 9 8 9 9 9 8 9 8 8 8 7
Wind_Direction
185 158 147 79 60 49 311 268 238 262 247 230 143 147 152 157 176 196 133 145 141 147 154 155 151 145 140 135 132 131 129 128 127 128 128 128 128 128 127 125 124 121 119 117 115 115 115 115 115
139 151 118 60 76 45 295 254 223 226 172 110 92 84 96 121 89 115 134 148 145 148 152 155 152 147 143 140 137 135 134 132 131 131 130 130 131 130 129 127 125 123 120 119 118 119 119 118 118
145 162 93 71 94 190 248 236 204 159 144 127 109 73 123 151 134 147 152 147 143 147 151 157 154 151 147 144 142 140 138 136 135 134 133 133 133 132 130 128 125 123 123 123 121 121 119 119 120
124 64 60 68 250 235 228 217 176 152 143 92 133 121 72 60 145 149 142 147 144 146 151 159 156 154 151 149 146 144 143 141 139 138 137 137 135 134 132 131 128 125 125 123 121 121 121 120 121
71 81 57 1 269 259 243 205 167 166 178 156 135 133 46 9 114 136 145 150 149 148 154 161 158 157 155 153 151 150 148 147 145 144 143 142 140 139 138 135 130 129 128 125 123 122 122 121 120
65 71 74 291 276 271 260 190 157 166 168 143 137 127 55 104 131 144 148 150 151 153 154 161 161 160 158 157 156 155 153 152 151 149 149 148 146 144 142 139 136 133 132 130 127 124 119 116 113
115 108 177 244 278 288 266 144 156 164 169 175 149 131 145 154 148 145 142 141 146 152 153 158 162 162 162 162 161 160 158 158 157 155 153 153 151 148 147 143 141 138 135 133 131 128 121 115 112
140 113 226 249 249 275 273 111 129 153 171 137 142 161 188 178 147 136 133 139 148 154 158 156 157 159 161 164 166 165 163 163 162 161 159 159 158 156 155 151 149 145 142 139 136 130 123 115 110
120 82 238 230 218 252 158 107 124 127 127 158 191 188 174 146 144 141 143 150 160 164 160 156 155 155 157 162 170 169 168 168 167 167 166 162 159 158 159 162 161 154 151 147 141 131 122 112 103
126 175 232 222 209 222 232 196 175 142 158 202 155 111 133 147 156 162 168 171 174 173 170 163 163 158 158 167 168 166 166 168 167 168 164 157 156 162 165 174 173 168 164 156 146 138 113 99 93
176 209 244 249 232 224 220 201 164 150 200 213 191 159 152 160 169 175 179 179 179 174 173 171 168 163 161 160 157 156 156 159 162 166 160 157 157 162 165 170 174 168 162 141 126 106 98 103 109
203 245 241 261 247 221 205 176 158 180 221 205 171 159 161 170 180 183 183 181 177 175 179 173 170 166 163 158 159 157 156 159 164 170 167 161 158 163 166 163 160 145 140 126 107 100 102 104 115
230 264 265 256 271 241 180 174 171 208 221 134 141 154 169 178 184 184 181 174 172 178 179 176 171 171 168 158 163 167 164 167 172 172 177 175 170 171 174 163 154 148 144 135 123 112 103 99 97
250 262 285 288 283 225 156 177 140 221 149 137 148 163 174 178 176 173 171 171 176 181 182 180 178 174 168 168 167 166 164 166 171 177 185 184 179 173 164 157 151 152 154 149 139 128 111 96 100
299 311 323 308 316 146 116 334 221 190 153 154 163 168 170 175 170 176 175 176 181 182 180 181 181 175 175 175 172 167 165 166 172 181 184 182 178 172 164 155 151 154 151 137 118 102 90 90 91
6 22 330 296 298 160 153 253 246 169 159 166 170 170 168 171 171 175 176 174 176 175 177 184 188 180 180 176 166 160 166 166 172 174 174 175 173 168 158 149 150 148 138 128 115 99 87 73 73
27 359 298 303 267 169 188 246 247 172 166 175 179 176 174 174 174 176 175 176 176 176 176 182 183 176 174 165 161 159 159 163 164 164 166 170 167 164 154 149 147 143 130 124 125 95 99 89 61
270 297 293 288 281 258 237 243 240 189 180 185 185 182 181 185 193 185 177 177 176 174 174 176 173 170 161 153 150 147 147 154 154 159 163 164 164 160 148 141 139 139 127 118 107 105 80 80 73
215 257 279 277 282 254 250 245 231 188 189 190 186 189 195 200 192 181 174 172 170 168 169 173 171 168 159 156 163 164 169 164 159 162 159 161 160 157 148 142 136 139 138 139 132 114 97 64 57
227 273 282 295 332 50 294 275 236 196 208 205 194 195 198 195 180 179 174 176 178 175 173 173 174 173 173 170 166 166 155 153 153 149 153 161 161 159 156 146 146 145 133 131 137 132 119 76 57
252 231 254 268 327 34 10 312 263 235 226 212 200 194 191 192 188 185 183 185 184 182 180 181 183 184 178 165 149 134 112 104 127 148 160 167 166 162 156 155 152 151 147 151 154 148 140 136 70
264 241 231 250 268 297 26 282 285 255 244 226 215 201 194 193 190 187 186 186 191 191 185 183 181 182 175 167 167 165 170 173 177 166 162 159 165 161 159 159 157 155 151 154 161 152 144 140 141
226 280 98 106 138 350 355 212 286 285 252 239 222 211 202 196 191 188 188 191 190 186 182 181 178 180 175 174 175 174 172 165 145 143 148 151 155 161 163 162 158 156 158 162 154 147 147 146 151
173 76 54 51 71 309 264 195 278 245 229 236 218 208 200 194 191 186 180 176 180 177 178 177 177 180 176 173 172 175 170 160 155 162 164 160 157 158 163 163 162 164 165 166 162 157 153 150 145
128 98 24 351 1 254 257 226 251 251 230 220 220 212 199 189 184 180 176 179 183 179 180 177 172 175 177 175 175 176 173 170 172 172 173 166 166 174 177 168 167 170 175 170 161 157 162 162 158
174 148 165 205 230 271 291 244 256 258 248 231 212 200 187 186 185 186 185 184 186 182 178 175 173 175 178 179 180 179 175 178 181 178 174 179 184 182 175 173 174 177 175 172 165 162 172 170 169
144 171 164 140 156 254 277 282 299 267 254 231 188 177 190 191 188 188 186 185 184 183 182 178 176 176 179 181 176 178 176 180 183 180 176 180 180 176 173 175 176 177 176 171 164 171 177 171 178
143 143 110 131 156 242 282 277 261 275 271 236 210 200 202 194 189 186 184 185 185 182 177 176 177 179 178 177 178 184 181 182 181 176 180 183 181 173 171 177 178 178 179 177 173 175 178 173 182
118 115 118 125 155 168 246 268 232 234 234 219 219 210 198 195 192 189 185 182 178 168 168 176 179 177 177 180 179 176 177 177 176 182 189 187 182 177 179 182 182 184 186 184 182 187 183 186 191
172 171 152 158 205 183 192 263 271 228 230 210 211 205 193 189 183 176 175 170 169 170 172 177 182 184 183 176 168 170 170 171 178 189 193 187 185 186 186 184 186 192 193 190 191 196 194 194 199
Height
1495 1495 1496 1498 1500 1507 1507 1499 1493 1491 1490 1489 1490 1491 1492 1494 1498 1501 1496 1497 1502 1507 1512 1516 1520 1523 1525 1527 1529 1531 1532 1534 1535 1537 1538 1539 1540 1542 1543 1544 1545 1546 1547 1548 1549 1550 1551 1552 1553
1495 1496 1498 1498 1504 1515 1508 1495 1491 1488 1488 1489 1490 1491 1492 1492 1492 1492 1493 1498 1502 1507 1512 1516 1520 1523 1526 1528 1530 1532 1533 1535 1537 1538 1539 1541 1542 1543 1545 1546 1547 1548 1549 1550 1551 1552 1553 1554 1555
1495 1496 1499 1500 1506 1511 1503 1492 1488 1487 1488 1489 1490 1491 1492 1492 1491 1492 1494 1498 1504 1508 1512 1516 1520 1523 1526 1529 1531 1533 1535 1536 1538 1540 1541 1542 1544 1545 1546 1548 1549 1550 1551 1552 1553 1554 1555 1556 1558
1496 1498 1499 1504 1506 1499 1493 1488 1487 1488 1489 1489 1490 1492 1492 1492 1492 1492 1495 1500 1504 1509 1513 1517 1521 1524 1527 1529 1532 1534 1536 1538 1539 1541 1543 1544 1545 1547 1548 1549 1550 1551 1553 1554 1555 1556 1557 1559 1560
1496 1498 1503 1508 1503 1493 1486 1485 1485 1487 1488 1489 1490 1491 1492 1493 1492 1494 1496 1501 1505 1509 1513 1517 1521 1524 1527 1530 1532 1534 1537 1539 1540 1542 1544 1546 1547 1548 1550 1551 1552 1553 1554 1556 1557 1558 1560 1561 1562
1497 1498 1509 1511 1501 1489 1484 1482 1484 1486 1487 1488 1490 1491 1492 1493 1493 1495 1498 1502 1506 1510 1514 1518 1521 1525 1528 1530 1533 1535 1537 1540 1542 1543 1545 1547 1549 1550 1551 1553 1554 1555 1556 1557 1559 1560 1562 1563 1564
1497 1502 1507 1504 1500 1491 1484 1482 1483 1485 1487 1488 1489 1490 1491 1492 1494 1497 1500 1503 1507 1511 1514 1518 1521 1525 1528 1531 1533 1536 1538 1540 1542 1544 1546 1548 1550 1551 1553 1554 1555 1557 1558 1559 1560 1562 1563 1565 1566
1495 1500 1503 1503 1498 1491 1483 1483 1484 1486 1487 1487 1488 1488 1489 1491 1493 1496 1500 1504 1507 1511 1514 1518 1521 1524 1528 1531 1534 1536 1539 1541 1543 1545 1547 1549 1551 1553 1554 1556 1557 1558 1559 1561 1562 1563 1565 1566 1567
1495 1503 1506 1499 1494 1487 1483 1484 1485 1485 1486 1486 1486 1486 1487 1489 1492 1495 1499 1503 1507 1510 1514 1517 1521 1524 1528 1531 1534 1537 1539 1541 1544 1546 1548 1550 1552 1553 1555 1557 1558 1560 1561 1562 1563 1564 1566 1567 1568
1494 1503 1496 1487 1484 1482 1482 1482 1483 1484 1485 1485 1485 1485 1486 1488 1491 1493 1496 1499 1503 1507 1512 1516 1520 1524 1527 1530 1533 1536 1539 1541 1544 1546 1548 1550 1552 1554 1556 1557 1559 1560 1562 1563 1564 1565 1567 1568 1569
1490 1493 1485 1481 1480 1479 1480 1480 1481 1482 1485 1481 1481 1482 1484 1487 1490 1492 1494 1496 1500 1505 1510 1514 1519 1523 1527 1530 1533 1536 1539 1541 1544 1546 1548 1551 1553 1554 1556 1557 1559 1561 1562 1563 1565 1566 1567 1568 1570
1488 1484 1482 1478 1477 1477 1477 1478 1479 1480 1479 1478 1479 1480 1482 1485 1487 1489 1492 1495 1499 1503 1508 1512 1517 1522 1526 1529 1532 1535 1538 1541 1544 1546 1549 1551 1553 1554 1556 1558 1559 1561 1562 1564 1565 1566 1567 1569 1570
1485 1482 1479 1477 1476 1475 1476 1476 1477 1478 1477 1477 1478 1480 1481 1483 1486 1489 1493 1495 1499 1503 1506 1511 1516 1520 1524 1528 1532 1535 1538 1541 1544 1546 1548 1551 1553 1555 1556 1558 1559 1561 1562 1564 1565 1566 1567 1568 1569
1481 1479 1477 1475 1474 1473 1474 1476 1477 1476 1476 1476 1477 1479 1480 1482 1485 1488 1491 1494 1498 1502 1505 1510 1515 1519 1523 1527 1531 1534 1537 1540 1543 1546 1548 1551 1553 1555 1556 1558 1559 1561 1562 1564 1565 1566 1567 1568 1569
1480 1479 1477 1474 1473 1473 1475 1478 1476 1474 1475 1476 1477 1479 1481 1483 1485 1487 1490 1493 1497 1501 1505 1508 1513 1517 1521 1526 1530 1533 1536 1540 1543 1545 1548 1550 1552 1554 1556 1558 1559 1560 1562 1563 1564 1566 1567 1568 1568
1480 1484 1487 1477 1473 1473 1479 1483 1473 1473 1474 1475 1477 1478 1480 1483 1485 1487 1490 1492 1496 1499 1503 1506 1511 1515 1520 1524 1529 1532 1536 1539 1542 1545 1547 1549 1551 1554 1555 1557 1558 1560 1561 1563 1564 1565 1566 1567 1568
1490 1495 1491 1482 1473 1473 1477 1480 1473 1472 1473 1475 1476 1478 1480 1482 1484 1486 1489 1491 1493 1497 1500 1504 1509 1513 1517 1522 1527 1531 1535 1538 1541 1544 1546 1549 1551 1553 1555 1556 1558 1560 1561 1562 1563 1564 1566 1566 1567
1495 1494 1491 1486 1475 1474 1476 1476 1472 1472 1473 1473 1475 1477 1479 1481 1482 1484 1487 1489 1492 1495 1498 1502 1507 1511 1515 1520 1525 1530 1533 1537 1540 1543 1546 1548 1550 1552 1554 1555 1557 1559 1560 1562 1563 1564 1565 1566 1566
1485 1489 1491 1482 1472 1474 1475 1475 1472 1471 1472 1472 1474 1475 1477 1479 1481 1483 1486 1488 1491 1493 1496 1500 1504 1509 1514 1518 1523 1527 1531 1535 1539 1542 1544 1547 1549 1551 1553 1555 1556 1558 1560 1561 1562 1563 1564 1564 1565
1484 1488 1487 1478 1471 1473 1476 1475 1471 1470 1470 1470 1471 1473 1475 1477 1480 1482 1483 1486 1489 1491 1494 1498 1502 1507 1512 1516 1521 1525 1529 1533 1537 1540 1543 1546 1548 1550 1552 1554 1556 1557 1559 1560 1561 1562 1563 1563 1564
1482 1485 1483 1481 1474 1474 1477 1478 1473 1469 1469 1470 1470 1471 1473 1475 1477 1479 1482 1484 1486 1489 1492 1495 1500 1504 1509 1514 1519 1524 1528 1531 1534 1537 1541 1544 1546 1549 1551 1553 1555 1556 1558 1559 1560 1561 1562 1563 1564
1484 1473 1474 1476 1483 1489 1485 1495 1477 1471 1470 1468 1468 1470 1471 1473 1475 1477 1480 1481 1483 1485 1489 1493 1498 1502 1507 1511 1516 1520 1523 1527 1532 1535 1539 1542 1545 1547 1549 1551 1553 1555 1556 1557 1559 1560 1561 1562 1563
1472 1468 1472 1476 1484 1491 1489 1495 1484 1472 1471 1467 1465 1466 1468 1470 1473 1475 1477 1479 1481 1483 1487 1490 1495 1499 1504 1509 1514 1518 1522 1525 1530 1534 1537 1540 1543 1545 1548 1550 1552 1553 1555 1556 1557 1558 1559 1560 1561
1465 1472 1478 1486 1493 1502 1491 1495 1489 1475 1466 1462 1461 1463 1465 1467 1470 1473 1475 1478 1480 1482 1485 1489 1492 1497 1502 1506 1511 1515 1519 1523 1528 1531 1535 1538 1541 1544 1546 1548 1550 1552 1554 1555 1556 1557 1558 1558 1560
1467 1484 1502 1503 1510 1506 1492 1494 1486 1462 1457 1457 1457 1459 1461 1464 1467 1470 1473 1475 1477 1480 1483 1487 1490 1495 1499 1504 1508 1512 1517 1521 1525 1529 1532 1536 1539 1541 1544 1546 1548 1550 1552 1553 1554 1555 1556 1557 1558
1468 1478 1501 1509 1511 1503 1492 1493 1472 1455 1453 1453 1454 1456 1458 1461 1465 1468 1470 1473 1475 1478 1481 1485 1489 1493 1497 1502 1506 1510 1514 1519 1523 1527 1530 1533 1537 1539 1542 1544 1546 1548 1550 1551 1552 1553 1554 1555 1556
1468 1475 1475 1493 1498 1503 1496 1484 1465 1452 1452 1452 1453 1454 1456 1459 1462 1465 1468 1471 1473 1476 1479 1483 1487 1491 1496 1500 1504 1508 1512 1517 1521 1525 1528 1532 1535 1537 1540 1542 1544 1546 1548 1549 1550 1551 1552 1553 1554
1457 1467 1482 1493 1504 1506 1494 1487 1477 1457 1453 1452 1452 1452 1454 1456 1459 1463 1466 1469 1472 1475 1478 1482 1486 1489 1494 1498 1502 1506 1510 1515 1519 1522 1526 1529 1532 1535 1537 1540 1542 1544 1546 1547 1548 1549 1550 1551 1552
1463 1470 1477 1488 1491 1502 1503 1488 1457 1453 1450 1450 1450 1450 1451 1454 1457 1460 1464 1467 1471 1474 1477 1481 1484 1488 1492 1496 1499 1504 1508 1512 1516 1520 1523 1527 1530 1532 1535 1537 1539 1541 1543 1545 1546 1547 1548 1549 1550
1455 1462 1473 1484 1488 1491 1495 1482 1447 1447 1446 1446 1447 1448 1450 1452 1455 1458 1462 1466 1469 1472 1476 1479 1483 1486 1490 1494 1497 1501 1506 1510 1514 1517 1521 1524 1527 1529 1532 1534 1536 1538 1540 1542 1543 1544 1545 1547 1548